User: anonymous   Login
Location: Newark
(40.7360°N, 74.1730°W)
Time: 11:29:24
(UTC-04:00)
Language:

ISS - Orbit

View from above orbital plane
View from above orbital plane
View from above satellite
View from above satellite

Ground track
Ground track

The orbit data is extracted from the following two-line orbital elements,

1 25544U 98067A   16276.55816902  .00016717  00000-0  10270-3 0  9027
2 25544  51.6402 242.4542 0006765  27.7073 332.4439 15.54047924 21689
Epoch (UTC): 02 October 2016 13:23:45
Eccentricity: 0.0006765
inclination: 51.6402°
perigee height: 400 km
apogee height: 409 km
right ascension of ascending node: 242.4542°
argument of perigee: 27.7073°
revolutions per day: 15.54047924
mean anomaly at epoch: 332.4439°
orbit number at epoch: 2168

The dashed part of the orbit path shows where the satellite is in the earth's shadow,  

DLR